COSMOS 249 DEB *

Satellite information

Favourite Embed

Satellite Type and Status

DEBRISIN ORBIT

Key statistics

Satellite COSMOS 249 DEB * at a glance.

Uptime

20873

Days in orbit

Revolutions

≈ 14.0

Per day

Orbit

LEO

Low Earth Orbit

Inclination

62.9

Latest

Satellite identification and parameters

Extended collection of information and parameters for COSMOS 249 DEB *.

Object identification

Identified? True

Debris? True

Object name: COSMOS 249 DEB *

International designator: 1968-091BY

Object number (NORAD): 4008

Object ID (CCSDS): 4008

Country: COMMONWEALTH OF INDEPENDENT STATES (CIS)

Current information (Y/N): Y

RCS size: SMALL

Orbital parameters

Period: 102.948 minutes

Inclination: 62.8502 deg

SMA: 7276.222 km

Apoapsis: 1274.596 km

Periapsis: 521.578 km

RAAN: 32.3551 deg

Eccentricy: 0.05174507

Argument of periapsis: 179.574 deg

Mean anomaly: 180.5861 deg

Mean motion: 13.98762097 rev/day

Mean motion (dot): 0.00004436 rev/day2

B* drag term: 0.00098304474 1/REarth

Two-line elements (TLE)

Creation date: Dec. 12, 2025, 10:14 a.m.

Reference frame: TEME

Reference center: EARTH

Epoch: Dec. 12, 2025, 6:43 a.m. UTC

TLE line 0: 0 COSMOS 249 DEB *

TLE line 1: 1 04008U 68091BY 25346.28053408 .00004436 00000-0 98304-3 0 9990

TLE line 2: 2 04008 62.8502 32.3551 0517451 179.5740 180.5861 13.98762097814545

Live tracking on map

Real-time ground track for satellite COSMOS 249 DEB *.

In-orbit conjunctions

A list of the most updated potential collisions computed for object COSMOS 249 DEB *.

Target Orbit TCA Probability of collision Miss distance Type
COSMOS 1574 LEO 2025-01-31 17:35:09 0.0001677722 878.0 (m) PAYLOAD
DMSP 5D-2 F10 (USA 68) SSO 2024-10-20 18:23:03 0.0008362799 518.0 (m) PAYLOAD

Associated space launch

The I2P satellites were the first soviet coorbital ASAT system.

COSMOS 249 DEB * was lifted into orbit during the mission ‘Tsiklon-2A | I2P 1’, on board a Tsiklon-2A space rocket.

The launch took place on Oct. 20, 1968, 4:02 a.m. from 90/20.

For more information about the launch, click the button.

Launch to space Tsiklon-2A | I2P 1
Tsiklon-2A | I2P 1

Agency: N/A

Status: Launch Successful

Launch date: Oct. 20, 1968, 4:02 a.m. UTC

Rocket: Tsiklon-2A

Launch pad: 90/20

Location: Baikonur Cosmodrome, Republic of Kazakhstan

...

Latest news about this satellite

There are no fresh news available about this satellite. Check back as we update our databases every day.


Newsletter sign-up

Weekly statistics, charts and insights to help you stay on top of the space industry.